Weather Roundup
Issued by NWS

Home | Current Version | Previous Version | Text Only | Print | Product List | Glossary On
Versions: 1 2 3 4 5 6 7 8 9 10 11 12 13 14 15 16 17 18 19 20 21 22 23 24 25 26 27 28 29 30 31 32 33 34 35 36 37 38 39 40 41 42 43 44 45 46 47 48 49 50
000
NZUS93 KARX 130110
HRRWXR

CURRENT HOURLY OBSERVATIONS ACROSS
MUCH OF THE UPPER MISSISSIPPI VALLEY
NATIONAL WEATHER SERVICE LA CROSSE WI
700 PM CST FRI FEB 12 2016


...SOUTHEAST MINNESOTA...


CITY           SKY/WX    TMP DP  RH WIND       PRES   REMARKS
ROCHESTER      CLEAR      2 -10  57 NW10      30.47R WCI -14
ROCHESTER/MAYO FAIR       6  -9  49 NW9G17    30.48R WCI  -8
WINONA         PTCLDY    10  -6  48 NW13      30.53R WCI  -5
AUSTIN         CLOUDY     3  -6  66 NW8       30.50R WCI -10
ALBERT LEA     CLEAR      5  -6  61 NW7       30.52R WCI  -7
DODGE CENTER   PTCLDY     1  -9  60 NW12      30.48R WCI -15
PRESTON        CLEAR      3 -10  55 NW9       30.47R WCI -12
OWATONNA       CLEAR      3  -8  60 NW10      30.52R WCI -12
FARIBAULT      CLEAR      3  -9  55 W7        30.53R WCI  -9
$$

...ELSEWHERE IN MINNESOTA...


CITY           SKY/WX    TMP DP  RH WIND       PRES   REMARKS
MINNEAPOLIS    CLEAR      6 -11  45 NW12      30.54S WCI  -9
INTNL FALLS    PTCLDY    -8 -19  58 NW9       30.52R WCI -25
DULUTH         CLEAR     -2 -18  46 NW12      30.42R WCI -20
RED WING       PTCLDY     7 -17  33 NW9       30.52R WCI  -7
REDWOOD FALLS  PTCLDY     3  -5  69 NW14G21   30.60R WCI -15
MANKATO        CLEAR      5  -8  56 NW13      30.56R WCI -12
WORTHINGTON    CLOUDY     0  -9  65 N10       30.56S WCI -17
FAIRMONT       CLOUDY     3  -4  72 NW16      30.55R WCI -16
$$

...SOUTHWEST WISCONSIN...


CITY           SKY/WX    TMP DP  RH WIND       PRES   REMARKS
LA CROSSE      PTCLDY     7 -10  46 N14       30.50R WCI -10
PRAIRIE DU CHI CLEAR     10  -7  46 NW14      30.49R WCI  -7
BOSCOBEL       CLEAR     11  -9  40 NW10      30.47R WCI  -3
LONE ROCK      CLEAR     10  -9  42 NW14G24   30.44R WCI  -6
PLATTEVILLE    CLEAR     11  -4  50 NW15G21   30.40R WCI  -5
FORT MC COY    CLEAR      6 -10  46 NW8       30.47R WCI  -7
CAMP DOUGLAS   PTCLDY     5 -12  46 NW13      30.42R WCI -12
VIROQUA        FAIR       4 -11  48 NW9       30.41R WCI -10
WIS DELLS      CLEAR      7 -12  41 NW10      30.39R WCI  -8
$$

...ELSEWHERE IN WISCONSIN...


CITY           SKY/WX    TMP DP  RH WIND       PRES   REMARKS
MILWAUKEE      CLEAR     11  -7  44 NW17G28   30.33R WCI  -6
MADISON        CLEAR      8  -8  48 NW12      30.37R WCI  -7
GREEN BAY      CLEAR      4 -11  50 NW16G28   30.37R WCI -15
EAU CLAIRE     CLEAR      3 -15  43 NW8       30.48R WCI -10
BLACK RVR FLS  FAIR       6 -16  36 NW8       30.47R WCI  -7
MEDFORD        CLEAR     -1 -14  55 NW13      30.35R WCI -20
WAUSAU         CLEAR      2 -12  52 NW10      30.36R WCI -14
WIS RAPIDS     PTCLDY     3 -14  45 N12       30.41R WCI -13
MARSHFIELD     PTCLDY     1 -15  47 NW13      30.38R WCI -17
RICE LAKE      CLEAR      1 -16  45 W5        30.48S WCI  -9
$$

...NORTHEAST IOWA...


CITY           SKY/WX    TMP DP  RH WIND       PRES   REMARKS
WATERLOO       CLEAR      7  -4  60 NW17      30.52R WCI -12
DUBUQUE        CLEAR      9  -4  55 NW18      30.42R WCI -10
DECORAH        CLEAR      7 -11  43 NW14      30.46R WCI -10
MASON CITY     CLOUDY     4  -5  66 NW16      30.53R WCI -15
CHARLES CITY   CLEAR      5  -8  56 NW17      30.51R WCI -14
OELWEIN        CLEAR      5  -4  66 NW17      30.49R WCI -14
$$

...ELSEWHERE IN IOWA...


CITY           SKY/WX    TMP DP  RH WIND       PRES   REMARKS
DES MOINES     CLOUDY    11   0  61 NW10      30.57R WCI  -3
IOWA CITY      PTCLDY    13   0  56 NW13G21   30.52R WCI  -2
FORT DODGE     CLOUDY     5  -6  61 N6        30.57R WCI  -6
MARSHALLTOWN   CLEAR      8   0  69 NW14      30.52R WCI  -8
CEDAR RAPIDS   CLEAR     11   2  67 N14       30.48R WCI  -5
$$

...NORTHERN ILLINOIS...


CITY           SKY/WX    TMP DP  RH WIND       PRES   REMARKS
CHICAGO-OHARE  PTCLDY    15  -4  42 NW20G35   30.32R WCI  -2
CHICAGO-MIDWAY PTCLDY    18  -5  36 NW18G29   30.32R WCI   2
MOLINE         CLEAR     14   0  53 NW23G31   30.45R WCI  -5
ROCKFORD       CLEAR     15  -4  42 N18G26    30.38R WCI  -2
PEORIA         CLEAR     17   0  47 NW13G25   30.42R WCI   4
$$

NOTE: "FAIR" INDICATES FEW OR NO CLOUDS BELOW 12,000 FEET WITH NO
SIGNIFICANT WEATHER AND/OR OBSTRUCTIONS TO VISIBILITY. WIND
SPEEDS ARE IN MILES-PER-HOUR.




USA.gov is the U.S. government's official web portal to all federal, state and local government web resources and services.